Theta_e
312 312 311 312 313 315 316 317 318 319 319 320 321 322 323 324 323 316 311 317 318 328 325 316 316 315 316 315 319 319 305 303 305 305 307 312 310 314 313 313 315 317 318 329 333
312 312 311 311 313 314 315 316 318 318 318 319 320 320 321 322 317 309 323 327 327 328 316 312 310 311 309 313 314 310 303 306 312 310 308 311 311 312 309 311 312 317 323 331 330
312 311 311 312 312 313 313 315 317 317 318 317 318 320 321 319 308 308 325 325 326 325 319 315 311 309 308 312 310 310 304 311 310 310 311 311 308 311 308 306 310 313 320 326 326
313 312 311 311 312 312 313 313 315 317 317 317 317 319 320 315 293 311 323 324 324 321 317 311 308 306 306 306 310 304 310 311 312 310 309 307 309 307 308 308 313 315 323 324 325
312 312 311 310 310 311 311 312 314 315 317 317 317 319 314 305 304 316 321 321 316 318 313 309 305 306 302 307 308 304 307 310 308 308 308 311 308 307 307 310 314 316 320 321 323
312 312 311 310 309 310 311 311 313 315 316 316 316 318 308 296 314 317 316 316 313 312 313 310 306 308 303 304 305 306 308 307 307 307 307 306 306 306 308 311 311 313 315 318 320
313 312 311 310 309 309 311 311 313 313 315 314 314 312 304 300 315 317 316 315 316 312 311 313 309 305 307 304 307 305 301 303 304 306 304 305 303 303 308 308 309 309 310 309 317
313 313 311 310 308 307 310 311 311 311 314 314 314 310 299 312 312 310 313 313 317 316 314 318 313 309 306 307 304 300 301 295 303 304 302 302 298 303 304 303 304 304 304 306 307
313 313 311 310 308 307 309 310 311 311 312 314 308 306 297 314 307 311 313 310 314 314 316 317 313 305 306 299 296 298 293 295 297 302 301 300 299 301 304 303 303 303 303 303 301
313 313 311 310 308 307 308 310 311 311 310 310 309 299 302 300 307 309 311 313 310 309 309 309 306 299 298 296 289 292 293 296 296 297 297 297 298 299 301 301 299 299 299 299 301
313 312 310 310 307 307 308 307 300 298 302 297 297 298 301 306 311 308 311 309 309 305 297 304 295 291 295 298 299 298 295 295 296 298 297 297 297 295 297 297 296 296 297 298 299
312 311 310 310 307 306 308 300 299 301 292 300 299 300 304 307 299 304 310 302 301 295 297 297 292 298 300 300 299 298 295 294 296 297 296 295 291 293 295 296 296 296 296 297 299
311 311 311 309 307 307 304 302 308 305 292 295 297 297 300 303 298 299 306 302 298 295 293 291 295 300 299 298 296 297 295 294 292 294 295 294 292 291 294 295 297 298 298 298 298
312 312 311 309 302 305 300 307 308 307 284 288 292 297 299 302 295 304 307 301 298 293 294 292 296 294 295 296 297 293 299 297 293 290 287 293 285 290 292 292 293 294 294 295 297
311 311 309 307 303 300 303 307 307 302 272 289 292 304 301 295 298 299 307 301 294 295 294 290 292 290 291 294 298 295 300 297 296 292 291 289 286 287 292 289 290 292 294 294 295
310 309 308 305 304 302 306 306 302 282 271 285 292 291 292 295 295 299 299 303 301 295 295 293 298 294 293 295 297 299 296 295 294 291 283 289 287 287 287 289 289 292 293 294 295
307 308 306 306 299 306 306 300 281 275 285 282 286 290 290 289 291 293 292 291 288 285 285 292 292 296 295 291 294 296 290 282 280 280 281 290 286 285 288 289 290 291 291 293 294
307 306 304 303 305 305 302 287 274 280 281 286 286 288 286 289 289 290 289 287 292 290 286 283 282 292 295 291 290 291 290 282 277 278 278 287 282 282 288 290 291 292 292 292 292
308 304 302 302 305 304 293 278 277 280 284 283 284 283 284 288 288 288 287 287 291 292 286 285 285 294 295 295 294 289 286 290 282 279 279 280 281 287 288 288 288 289 289 289 291
304 301 299 302 303 298 286 280 282 285 285 285 280 284 280 284 284 285 286 287 288 293 295 288 283 291 292 295 294 292 292 282 284 275 274 278 278 279 283 285 287 287 287 288 290
302 292 301 302 301 290 281 280 282 287 288 284 282 282 284 283 285 284 285 286 289 292 295 292 288 286 290 287 287 288 286 288 287 283 278 275 277 286 285 286 285 286 288 288 289
299 285 301 301 286 285 282 281 286 286 289 287 286 286 284 286 284 285 284 287 289 292 289 292 289 282 284 289 292 292 288 289 280 279 281 281 277 288 287 287 287 287 288 288 289
293 293 301 298 282 281 281 282 285 284 285 285 284 286 287 285 283 285 286 290 293 289 288 290 285 278 281 285 289 287 290 291 289 287 280 277 277 288 289 286 287 286 287 288 288
294 284 289 290 289 284 278 277 279 288 286 287 285 287 286 285 287 284 285 289 292 290 291 293 285 280 276 279 285 283 286 289 288 279 280 280 279 285 287 285 286 286 287 287 287
292 284 286 282 282 283 282 279 277 278 286 287 284 284 284 281 282 282 286 288 290 292 290 289 279 281 281 282 286 284 286 287 285 286 280 282 281 286 289 286 285 285 286 287 287
287 286 287 282 284 284 283 281 280 282 283 282 282 283 283 279 281 280 283 283 283 288 287 288 280 279 274 278 283 282 285 285 284 284 286 286 284 290 285 285 284 285 286 286 286
292 292 290 284 284 282 281 282 283 285 286 286 285 283 280 281 284 286 287 287 285 283 283 282 276 272 269 274 272 269 276 282 283 285 284 280 284 284 283 284 284 284 285 286 286
Wind_Speed
7 7 7 7 5 6 10 11 10 7 7 7 9 10 11 13 16 9 9 4 7 10 13 12 11 6 8 5 2 3 3 7 6 3 8 6 7 3 2 7 8 6 8 12 13
8 8 9 7 7 5 7 11 11 7 6 7 8 9 11 13 7 9 7 8 8 10 8 7 8 10 5 4 3 3 4 3 9 10 7 6 3 7 4 8 8 8 7 13 11
7 7 8 9 5 5 8 10 11 7 6 7 7 9 10 12 5 3 7 7 8 9 9 9 7 7 7 6 4 4 7 6 9 7 9 6 2 3 3 3 8 12 9 9 8
8 7 6 7 8 6 7 9 10 8 6 7 7 7 8 5 4 3 5 6 8 7 7 6 4 3 5 8 9 4 8 6 6 4 3 4 4 4 7 5 10 10 12 8 9
8 7 6 6 6 8 9 8 9 8 9 7 6 6 4 6 7 6 5 7 9 4 7 7 6 4 9 6 6 5 10 4 6 3 6 3 4 4 5 9 10 8 8 9 9
8 7 5 5 5 7 8 8 9 10 9 5 4 2 4 10 3 5 4 5 6 5 7 6 4 2 5 8 5 4 8 3 4 4 3 3 5 2 6 6 7 5 8 8 7
9 7 6 4 4 6 7 7 8 8 8 3 3 4 7 10 4 3 4 4 6 5 7 5 5 4 2 4 4 1 1 2 4 4 3 2 1 3 8 5 6 7 10 8 7
9 7 5 4 2 4 7 7 6 5 7 5 4 6 6 3 11 13 8 5 4 6 5 7 2 6 4 3 3 5 0 3 8 6 1 2 5 7 4 4 2 7 10 10 10
10 6 5 4 2 4 6 7 8 5 7 7 5 5 5 3 5 8 9 3 3 5 4 3 3 4 2 6 5 6 6 11 2 3 2 4 3 4 6 5 6 8 10 10 12
11 7 6 4 2 4 6 6 3 5 4 3 5 4 6 5 4 7 10 5 3 4 4 5 4 5 4 8 12 9 11 12 10 2 3 4 2 5 9 8 10 11 11 10 10
11 8 5 4 2 4 5 2 3 3 4 4 1 10 4 4 2 4 6 7 5 4 8 10 6 13 13 12 10 10 10 6 7 2 2 4 1 12 12 12 11 11 10 10 10
11 7 6 6 2 3 3 3 2 2 5 9 8 10 11 5 4 8 10 9 6 7 9 6 13 10 12 13 11 8 6 7 3 4 2 5 13 10 10 8 9 10 9 9 10
10 7 8 7 2 1 1 3 5 1 5 4 4 4 7 10 6 10 9 9 8 10 11 10 0 13 12 11 14 12 13 8 11 4 8 8 3 1 7 9 11 10 9 10 10
10 9 10 8 2 2 1 5 3 3 3 5 5 5 9 6 6 8 13 8 5 10 11 8 5 6 5 13 10 13 14 7 8 6 6 4 3 6 9 9 10 9 8 9 10
10 11 7 1 3 1 3 4 3 2 3 2 6 2 3 8 5 6 4 9 10 6 7 5 7 4 6 9 7 6 11 7 3 4 4 3 4 3 9 10 9 7 8 8 9
13 10 7 2 3 3 4 5 3 2 4 3 1 5 6 12 4 4 5 3 2 6 8 6 1 6 4 2 4 11 5 12 7 2 3 8 5 4 4 12 8 8 9 8 9
12 9 2 3 3 1 2 1 2 3 2 3 2 5 11 8 11 5 6 9 7 7 6 5 4 3 2 6 1 13 15 5 3 2 2 10 4 4 9 10 10 9 8 7 7
12 8 6 5 2 1 1 1 4 0 3 3 4 9 7 6 8 7 6 8 12 7 4 7 7 7 7 4 6 10 11 6 5 6 5 8 5 3 8 7 8 9 7 7 8
10 3 3 3 2 1 2 2 4 4 4 5 5 4 4 5 1 4 7 2 7 7 5 8 2 4 3 2 4 5 8 2 7 2 4 6 4 3 7 7 8 9 7 7 7
2 2 3 3 2 3 2 3 2 3 4 3 3 4 5 6 5 3 5 2 0 7 4 1 5 1 0 1 3 3 7 4 2 6 5 4 6 6 10 10 8 8 7 7 7
2 3 3 4 2 4 2 2 2 3 4 3 4 4 3 5 5 3 3 3 2 4 5 8 2 2 3 2 4 1 2 1 4 2 4 5 0 10 14 11 10 8 7 6 7
3 1 3 4 3 1 2 2 3 5 6 1 2 3 3 3 4 3 2 5 2 5 3 2 4 4 2 4 4 4 2 4 4 3 2 4 2 4 8 10 9 8 6 5 5
0 1 2 2 2 3 1 2 3 5 5 6 3 4 3 2 2 3 2 4 3 7 2 4 1 5 2 3 4 2 2 3 5 3 2 5 5 4 7 8 7 8 7 5 6
0 2 3 4 1 1 3 2 2 4 3 5 4 1 1 3 7 4 3 2 3 8 6 2 5 6 4 1 4 4 2 1 3 3 4 1 12 9 8 10 8 7 6 6 6
4 1 1 2 3 2 2 2 2 5 7 6 5 6 4 4 3 4 4 4 3 2 1 4 4 6 7 9 6 6 6 4 3 4 4 8 13 15 10 8 7 7 6 6 6
3 2 2 2 3 2 0 4 3 1 5 4 9 11 11 7 8 5 3 5 2 4 4 3 4 2 6 10 8 7 5 5 5 5 7 8 8 10 7 8 7 6 7 6 5
1 1 2 0 2 1 2 1 2 3 5 5 6 6 10 8 5 6 9 7 5 4 3 3 5 2 1 3 4 5 4 4 3 2 5 6 7 8 7 6 5 3 4 3 5
Wind_Direction
323 338 343 336 332 356 352 346 334 321 333 334 336 338 340 336 317 303 288 357 340 343 321 294 288 286 286 256 222 286 285 266 265 165 111 148 113 351 15 117 57 58 65 106 106
299 318 333 337 331 352 352 353 342 318 326 331 334 329 333 332 311 293 34 24 4 339 316 332 326 341 282 226 220 223 233 327 301 13 112 154 165 138 183 126 119 95 93 107 115
283 307 324 335 337 346 358 360 350 330 318 317 324 326 332 323 287 61 6 11 345 319 281 294 292 291 277 257 211 217 247 309 84 2 347 118 67 52 236 161 114 150 139 127 132
275 293 307 321 328 330 333 351 353 340 319 311 310 321 328 301 241 104 39 345 318 301 283 280 246 245 248 239 239 258 253 285 91 26 349 116 68 152 43 99 66 61 129 130 151
266 269 287 306 317 324 342 335 345 336 319 303 306 325 288 220 252 116 13 330 311 306 262 244 256 236 268 249 243 240 284 107 58 47 43 23 68 45 136 122 92 99 123 155 154
250 257 259 279 315 318 325 328 337 338 320 293 293 303 244 245 356 43 25 322 284 315 270 249 259 308 303 274 220 353 250 216 133 150 87 299 110 296 65 96 99 129 96 78 91
244 255 250 257 310 330 325 321 331 335 330 303 301 236 244 234 116 94 2 326 306 302 303 244 310 307 244 265 85 24 275 242 206 198 132 262 215 230 125 77 129 128 119 82 85
237 240 259 262 294 329 332 299 313 306 327 300 285 242 252 232 245 270 282 283 250 272 275 320 304 285 262 91 155 207 312 210 197 145 150 220 219 91 91 111 116 78 95 100 78
227 220 246 245 259 313 318 307 290 287 302 272 243 233 256 112 219 230 239 247 304 235 252 264 226 237 208 209 174 216 187 245 100 347 109 202 169 99 49 52 94 91 77 65 60
214 208 226 215 250 295 313 314 285 261 227 244 245 227 248 229 206 224 200 209 281 196 227 205 225 196 204 200 198 185 203 204 236 62 358 192 154 113 50 33 41 58 66 64 67
196 204 200 181 235 303 315 275 250 201 216 229 66 253 38 121 26 213 202 183 228 242 192 205 204 205 193 208 215 212 197 214 44 354 269 202 228 48 41 40 40 53 50 43 64
178 186 174 156 196 309 282 279 71 74 304 221 265 277 293 306 245 226 185 194 184 190 220 200 230 212 221 201 216 240 215 198 140 108 289 80 47 50 52 41 61 68 60 50 49
163 160 152 139 141 213 342 60 108 137 263 171 218 265 260 209 226 188 196 199 194 207 201 225 337 222 231 215 192 197 233 201 150 133 64 81 353 146 84 65 56 57 64 68 59
146 143 138 138 153 78 9 84 19 319 290 157 208 224 246 231 238 227 183 197 226 218 180 239 257 261 204 190 218 190 223 72 112 158 176 193 207 248 126 99 79 65 53 52 57
123 125 131 252 88 133 20 10 354 266 260 92 158 96 263 200 142 192 154 236 209 212 172 193 142 176 217 198 198 211 160 153 52 16 121 250 139 158 140 113 95 84 74 64 63
106 111 132 148 66 20 318 350 22 180 237 139 252 225 197 212 234 133 176 191 205 246 227 167 61 167 202 62 237 118 97 101 92 6 212 188 174 203 170 131 104 89 73 58 57
99 80 54 14 65 133 5 283 274 262 277 350 326 256 213 182 218 131 212 189 191 159 190 173 170 88 161 97 301 160 154 121 149 201 187 164 142 57 79 76 101 99 80 79 64
106 89 63 63 77 326 228 137 246 44 31 354 297 291 217 191 203 156 162 204 222 231 157 168 185 164 185 196 175 201 181 142 154 170 160 133 179 123 89 96 100 91 86 75 66
137 113 82 22 339 337 299 227 19 3 341 333 295 267 178 209 215 194 191 191 218 203 205 203 120 64 46 47 159 205 226 72 103 84 107 145 100 66 136 129 111 108 99 84 77
312 143 67 345 304 247 28 83 313 344 317 245 285 218 181 192 166 126 160 45 331 288 288 98 123 323 345 342 24 220 137 84 4 143 155 183 168 166 166 148 145 124 109 85 72
271 48 79 348 228 44 39 51 305 298 293 312 335 300 302 179 179 113 19 68 329 280 289 158 178 61 103 19 164 148 152 43 105 130 149 142 225 151 154 154 123 114 97 84 79
329 19 35 311 47 22 25 354 314 328 342 264 282 307 331 288 131 93 111 48 244 330 105 34 91 124 92 353 300 341 213 165 130 225 41 90 107 98 117 113 115 118 101 88 105
3 238 89 317 105 90 282 323 325 347 350 339 338 349 331 27 133 115 81 351 4 27 18 344 122 115 90 0 350 272 314 85 85 59 181 122 170 111 100 102 122 121 133 141 114
330 332 355 33 318 100 166 325 311 316 296 326 354 208 332 77 40 108 83 8 12 116 278 284 46 63 112 98 141 158 215 189 88 106 167 65 135 164 161 155 149 134 133 131 116
11 247 188 67 35 39 143 203 10 14 333 323 26 62 357 57 64 49 97 124 39 144 79 71 88 75 50 346 55 130 160 182 117 139 114 147 155 172 173 151 135 136 142 144 131
112 153 151 134 283 279 58 29 69 94 353 357 68 50 56 69 27 36 262 11 67 357 70 50 108 63 35 2 32 78 110 100 77 71 93 129 117 155 111 106 139 149 153 165 143
143 292 286 356 230 283 359 208 60 298 81 37 341 67 47 45 48 27 52 60 60 58 70 70 126 80 15 354 16 26 248 162 121 174 140 146 151 126 132 139 148 130 108 155 105